Time,TemperatureF,DewpointF,PressureIn,WindDirection,WindDirectionDegrees,WindSpeedMPH,WindSpeedGustMPH,Humidity,HourlyPrecipIn,Conditions,Clouds,dailyrainin,SoftwareType,DateUTC
2013-11-30 00:11:00,25.9,19.7,30.72,West,270,2.7,-999.0,77,-99.99,,,0.00,Acu-Link.com,2013-11-30 05:11:00,
2013-11-30 00:26:00,26.2,19.7,30.71,NW,315,1.6,-999.0,76,-99.99,,,0.00,Acu-Link.com,2013-11-30 05:26:00,
2013-11-30 00:42:00,26.1,19.6,30.71,SE,135,3.1,-999.0,76,-99.99,,,0.00,Acu-Link.com,2013-11-30 05:42:00,
2013-11-30 00:57:00,25.9,19.4,30.71,NNE,22,0.0,-999.0,76,-99.99,,,0.00,Acu-Link.com,2013-11-30 05:57:00,
2013-11-30 01:12:00,25.9,19.4,30.71,South,180,0.0,-999.0,76,-99.99,,,0.00,Acu-Link.com,2013-11-30 06:12:00,
2013-11-30 01:27:00,25.5,19.0,30.71,SW,225,0.0,-999.0,76,-99.99,,,0.00,Acu-Link.com,2013-11-30 06:27:00,
2013-11-30 01:42:00,25.5,19.0,30.71,West,270,2.7,-999.0,76,-99.99,,,0.00,Acu-Link.com,2013-11-30 06:42:00,
2013-11-30 01:58:00,25.3,18.9,30.72,SSW,202,1.6,-999.0,76,-99.99,,,0.00,Acu-Link.com,2013-11-30 06:58:00,
2013-11-30 02:13:00,25.2,18.7,30.72,East,90,1.1,-999.0,76,-99.99,,,0.00,Acu-Link.com,2013-11-30 07:13:00,
2013-11-30 02:28:00,25.2,18.7,30.72,WNW,292,1.6,-999.0,76,-99.99,,,0.00,Acu-Link.com,2013-11-30 07:28:00,
2013-11-30 02:43:00,25.2,18.7,30.71,SE,135,0.0,-999.0,76,-99.99,,,0.00,Acu-Link.com,2013-11-30 07:43:00,
2013-11-30 02:58:00,25.0,18.5,30.71,WNW,292,2.2,-999.0,76,-99.99,,,0.00,Acu-Link.com,2013-11-30 07:58:00,
2013-11-30 03:14:00,25.0,18.5,30.71,WSW,247,3.1,-999.0,76,-99.99,,,0.00,Acu-Link.com,2013-11-30 08:14:00,
2013-11-30 03:29:00,24.8,18.3,30.71,NW,315,3.1,-999.0,76,-99.99,,,0.00,Acu-Link.com,2013-11-30 08:29:00,
2013-11-30 03:44:00,24.4,18.0,30.71,WNW,292,3.8,-999.0,76,-99.99,,,0.00,Acu-Link.com,2013-11-30 08:44:00,
2013-11-30 03:59:00,24.4,18.0,30.70,SW,225,2.7,-999.0,76,-99.99,,,0.00,Acu-Link.com,2013-11-30 08:59:00,
2013-11-30 04:15:00,24.3,17.8,30.71,WNW,292,2.2,-999.0,76,-99.99,,,0.00,Acu-Link.com,2013-11-30 09:15:00,
2013-11-30 04:30:00,23.9,17.5,30.70,WNW,292,1.1,-999.0,76,-99.99,,,0.00,Acu-Link.com,2013-11-30 09:30:00,
2013-11-30 04:45:00,23.7,17.3,30.70,SW,225,2.2,-999.0,76,-99.99,,,0.00,Acu-Link.com,2013-11-30 09:45:00,
2013-11-30 05:00:00,23.5,17.1,30.70,SSW,202,2.2,-999.0,76,-99.99,,,0.00,Acu-Link.com,2013-11-30 10:00:00,
2013-11-30 05:15:00,23.4,16.9,30.70,WNW,292,2.2,-999.0,76,-99.99,,,0.00,Acu-Link.com,2013-11-30 10:15:00,
2013-11-30 05:31:00,23.0,16.6,30.70,NNW,337,2.2,-999.0,76,-99.99,,,0.00,Acu-Link.com,2013-11-30 10:31:00,
2013-11-30 05:46:00,23.0,16.6,30.70,WSW,247,2.2,-999.0,76,-99.99,,,0.00,Acu-Link.com,2013-11-30 10:46:00,
2013-11-30 06:01:00,23.0,16.6,30.70,SW,225,0.0,-999.0,76,-99.99,,,0.00,Acu-Link.com,2013-11-30 11:01:00,
2013-11-30 06:16:00,22.8,16.4,30.70,West,270,1.6,-999.0,76,-99.99,,,0.00,Acu-Link.com,2013-11-30 11:16:00,
2013-11-30 06:31:00,22.6,16.2,30.71,ESE,112,1.6,-999.0,76,-99.99,,,0.00,Acu-Link.com,2013-11-30 11:31:00,
2013-11-30 06:47:00,22.6,16.2,30.70,WSW,247,2.7,-999.0,76,-99.99,,,0.00,Acu-Link.com,2013-11-30 11:47:00,
2013-11-30 07:02:00,22.5,16.4,30.71,NW,315,1.6,-999.0,77,-99.99,,,0.00,Acu-Link.com,2013-11-30 12:02:00,
2013-11-30 07:17:00,22.6,16.5,30.71,SSE,157,1.6,-999.0,77,-99.99,,,0.00,Acu-Link.com,2013-11-30 12:17:00,
2013-11-30 07:32:00,23.2,17.1,30.71,SW,225,1.1,-999.0,77,-99.99,,,0.00,Acu-Link.com,2013-11-30 12:32:00,
2013-11-30 07:47:00,24.4,18.0,30.71,SSW,202,2.2,-999.0,76,-99.99,,,0.00,Acu-Link.com,2013-11-30 12:47:00,
2013-11-30 08:03:00,25.5,18.7,30.71,SE,135,2.2,-999.0,75,-99.99,,,0.00,Acu-Link.com,2013-11-30 13:03:00,
2013-11-30 08:18:00,27.7,20.2,30.71,South,180,2.2,-999.0,73,-99.99,,,0.00,Acu-Link.com,2013-11-30 13:18:00,
2013-11-30 08:33:00,29.5,21.6,30.71,SSW,202,1.1,-999.0,72,-99.99,,,0.00,Acu-Link.com,2013-11-30 13:33:00,
2013-11-30 08:48:00,31.3,23.0,30.71,NW,315,3.1,-999.0,71,-99.99,,,0.00,Acu-Link.com,2013-11-30 13:48:00,
2013-11-30 09:04:00,32.5,23.9,30.70,SSE,157,3.8,-999.0,70,-99.99,,,0.00,Acu-Link.com,2013-11-30 14:04:00,
2013-11-30 09:19:00,34.0,24.9,30.70,South,180,2.2,-999.0,69,-99.99,,,0.00,Acu-Link.com,2013-11-30 14:19:00,
2013-11-30 09:34:00,34.7,25.6,30.70,SSE,157,4.3,-999.0,69,-99.99,,,0.00,Acu-Link.com,2013-11-30 14:34:00,
2013-11-30 09:49:00,35.2,26.1,30.71,West,270,2.2,-999.0,69,-99.99,,,0.00,Acu-Link.com,2013-11-30 14:49:00,
2013-11-30 10:04:00,36.9,27.7,30.70,SE,135,1.6,-999.0,69,-99.99,,,0.00,Acu-Link.com,2013-11-30 15:04:00,
2013-11-30 10:20:00,38.1,28.5,30.70,West,270,2.7,-999.0,68,-99.99,,,0.00,Acu-Link.com,2013-11-30 15:20:00,
2013-11-30 10:35:00,38.3,28.7,30.70,NNW,337,1.6,-999.0,68,-99.99,,,0.00,Acu-Link.com,2013-11-30 15:35:00,
2013-11-30 10:50:00,39.9,29.9,30.68,WNW,292,6.3,-999.0,67,-99.99,,,0.00,Acu-Link.com,2013-11-30 15:50:00,
2013-11-30 11:05:00,40.8,30.4,30.67,West,270,2.7,-999.0,66,-99.99,,,0.00,Acu-Link.com,2013-11-30 16:05:00,
2013-11-30 11:20:00,42.3,31.3,30.66,SE,135,1.6,-999.0,65,-99.99,,,0.00,Acu-Link.com,2013-11-30 16:20:00,
2013-11-30 11:36:00,42.3,31.3,30.65,SSE,157,4.7,-999.0,65,-99.99,,,0.00,Acu-Link.com,2013-11-30 16:36:00,
2013-11-30 11:51:00,41.4,31.2,30.64,ENE,67,3.8,-999.0,67,-99.99,,,0.00,Acu-Link.com,2013-11-30 16:51:00,
2013-11-30 12:06:00,41.9,31.4,30.64,ESE,112,3.1,-999.0,66,-99.99,,,0.00,Acu-Link.com,2013-11-30 17:06:00,
2013-11-30 12:21:00,42.3,31.3,30.63,ESE,112,4.7,-999.0,65,-99.99,,,0.00,Acu-Link.com,2013-11-30 17:21:00,
2013-11-30 12:36:00,91.6,85.7,30.62,WNW,292,2.7,-999.0,83,-99.99,,,0.00,Acu-Link.com,2013-11-30 17:36:00,
2013-11-30 12:51:00,41.9,31.4,30.61,ESE,112,4.3,-999.0,66,-99.99,,,0.00,Acu-Link.com,2013-11-30 17:51:00,
2013-11-30 13:07:00,42.1,31.2,30.60,ENE,67,5.1,-999.0,65,-99.99,,,0.00,Acu-Link.com,2013-11-30 18:07:00,
2013-11-30 13:22:00,41.5,31.0,30.60,ENE,67,7.4,-999.0,66,-99.99,,,0.00,Acu-Link.com,2013-11-30 18:22:00,
2013-11-30 13:37:00,41.0,30.9,30.60,WNW,292,3.1,-999.0,67,-99.99,,,0.00,Acu-Link.com,2013-11-30 18:37:00,
2013-11-30 13:52:00,41.0,30.9,30.59,SSE,157,1.6,-999.0,67,-99.99,,,0.00,Acu-Link.com,2013-11-30 18:52:00,
2013-11-30 14:07:00,41.2,31.1,30.58,SSE,157,4.3,-999.0,67,-99.99,,,0.00,Acu-Link.com,2013-11-30 19:07:00,
2013-11-30 14:23:00,41.0,30.9,30.58,SSE,157,4.3,-999.0,67,-99.99,,,0.00,Acu-Link.com,2013-11-30 19:23:00,
2013-11-30 14:38:00,41.0,30.5,30.57,SE,135,4.3,-999.0,66,-99.99,,,0.00,Acu-Link.com,2013-11-30 19:38:00,
2013-11-30 14:53:00,41.2,30.7,30.57,NE,45,1.1,-999.0,66,-99.99,,,0.00,Acu-Link.com,2013-11-30 19:53:00,
2013-11-30 15:08:00,40.8,30.4,30.56,East,90,4.7,-999.0,66,-99.99,,,0.00,Acu-Link.com,2013-11-30 20:08:00,
2013-11-30 15:24:00,40.5,30.4,30.57,SSE,157,3.8,-999.0,67,-99.99,,,0.00,Acu-Link.com,2013-11-30 20:24:00,
2013-11-30 15:39:00,39.9,30.2,30.56,WSW,247,0.0,-999.0,68,-99.99,,,0.00,Acu-Link.com,2013-11-30 20:39:00,
2013-11-30 15:54:00,39.9,30.2,30.55,South,180,2.7,-999.0,68,-99.99,,,0.00,Acu-Link.com,2013-11-30 20:54:00,
2013-11-30 16:09:00,39.4,30.1,30.55,ESE,112,0.0,-999.0,69,-99.99,,,0.00,Acu-Link.com,2013-11-30 21:09:00,
2013-11-30 16:24:00,38.8,29.6,30.54,SSE,157,0.0,-999.0,69,-99.99,,,0.00,Acu-Link.com,2013-11-30 21:24:00,
2013-11-30 16:40:00,38.3,29.4,30.53,SW,225,0.0,-999.0,70,-99.99,,,0.00,Acu-Link.com,2013-11-30 21:40:00,
2013-11-30 16:55:00,37.8,29.2,30.53,South,180,0.0,-999.0,71,-99.99,,,0.00,Acu-Link.com,2013-11-30 21:55:00,
2013-11-30 17:10:00,37.6,29.0,30.53,SW,225,0.0,-999.0,71,-99.99,,,0.00,Acu-Link.com,2013-11-30 22:10:00,
2013-11-30 17:25:00,37.2,29.0,30.52,WSW,247,0.0,-999.0,72,-99.99,,,0.00,Acu-Link.com,2013-11-30 22:25:00,
2013-11-30 17:41:00,36.9,28.7,30.52,SSE,157,0.0,-999.0,72,-99.99,,,0.00,Acu-Link.com,2013-11-30 22:41:00,
2013-11-30 17:56:00,36.3,28.5,30.51,West,270,0.0,-999.0,73,-99.99,,,0.00,Acu-Link.com,2013-11-30 22:56:00,
2013-11-30 18:11:00,36.1,28.7,30.50,SW,225,0.0,-999.0,74,-99.99,,,0.00,Acu-Link.com,2013-11-30 23:11:00,
2013-11-30 18:27:00,36.1,28.7,30.49,South,180,0.0,-999.0,74,-99.99,,,0.00,Acu-Link.com,2013-11-30 23:27:00,
2013-11-30 18:42:00,36.1,28.3,30.48,SSE,157,0.0,-999.0,73,-99.99,,,0.00,Acu-Link.com,2013-11-30 23:42:00,
2013-11-30 18:57:00,36.1,28.3,30.48,South,180,0.0,-999.0,73,-99.99,,,0.00,Acu-Link.com,2013-11-30 23:57:00,
2013-11-30 19:12:00,36.0,28.2,30.47,South,180,0.0,-999.0,73,-99.99,,,0.00,Acu-Link.com,2013-12-01 00:12:00,
2013-11-30 19:28:00,36.0,28.2,30.46,WSW,247,0.0,-999.0,73,-99.99,,,0.00,Acu-Link.com,2013-12-01 00:28:00,
2013-11-30 19:43:00,36.0,28.2,30.46,West,270,1.6,-999.0,73,-99.99,,,0.00,Acu-Link.com,2013-12-01 00:43:00,
2013-11-30 19:58:00,36.0,28.5,30.45,West,270,0.0,-999.0,74,-99.99,,,0.00,Acu-Link.com,2013-12-01 00:58:00,
2013-11-30 20:13:00,36.0,28.5,30.44,SSW,202,1.1,-999.0,74,-99.99,,,0.00,Acu-Link.com,2013-12-01 01:13:00,
2013-11-30 20:28:00,36.1,29.0,30.44,SSW,202,1.6,-999.0,75,-99.99,,,0.00,Acu-Link.com,2013-12-01 01:28:00,
2013-11-30 20:43:00,36.1,29.0,30.44,NNW,337,3.1,-999.0,75,-99.99,,,0.00,Acu-Link.com,2013-12-01 01:43:00,
2013-11-30 20:58:00,36.3,29.5,30.43,SW,225,0.0,-999.0,76,-99.99,,,0.00,Acu-Link.com,2013-12-01 01:58:00,
2013-11-30 21:14:00,36.3,29.8,30.42,SSW,202,1.6,-999.0,77,-99.99,,,0.00,Acu-Link.com,2013-12-01 02:14:00,
2013-11-30 21:29:00,36.3,29.8,30.42,SSW,202,0.0,-999.0,77,-99.99,,,0.00,Acu-Link.com,2013-12-01 02:29:00,
2013-11-30 21:44:00,36.1,30.0,30.41,South,180,0.0,-999.0,78,-99.99,,,0.00,Acu-Link.com,2013-12-01 02:44:00,
2013-11-30 21:59:00,36.0,30.1,30.41,ESE,112,1.6,-999.0,79,-99.99,,,0.00,Acu-Link.com,2013-12-01 02:59:00,
2013-11-30 22:15:00,36.0,30.1,30.40,NW,315,2.2,-999.0,79,-99.99,,,0.00,Acu-Link.com,2013-12-01 03:15:00,
2013-11-30 22:30:00,35.6,29.7,30.39,West,270,2.2,-999.0,79,-99.99,,,0.00,Acu-Link.com,2013-12-01 03:30:00,
2013-11-30 22:45:00,35.6,29.7,30.39,West,270,0.0,-999.0,79,-99.99,,,0.00,Acu-Link.com,2013-12-01 03:45:00,
2013-11-30 23:00:00,35.4,29.6,30.38,West,270,0.0,-999.0,79,-99.99,,,0.00,Acu-Link.com,2013-12-01 04:00:00,
2013-11-30 23:15:00,35.1,29.5,30.37,NW,315,0.0,-999.0,80,-99.99,,,0.00,Acu-Link.com,2013-12-01 04:15:00,
2013-11-30 23:30:00,34.5,29.0,30.37,NNW,337,1.1,-999.0,80,-99.99,,,0.00,Acu-Link.com,2013-12-01 04:30:00,
2013-11-30 23:45:00,34.0,28.5,30.36,WNW,292,0.0,-999.0,80,-99.99,,,0.00,Acu-Link.com,2013-12-01 04:45:00,